| time (UTC) | temp F | wind direction | speed knots | gust knots | rain 1hr in | rain 24hr in | rain mn in | humidity % | barometer mb |
| 20260507145037 | 78 | 16 | 9.6 | 21.7 | 0.00 | 0.00 | 0.00 | 66 | 1009.9 |
| 20260507144539 | 77 | 357 | 14.8 | 21.7 | 0.00 | 0.00 | 0.00 | 65 | 1010.0 |
| 20260507144039 | 77 | 3 | 11.3 | 27.8 | 0.00 | 0.00 | 0.00 | 66 | 1010.2 |
| 20260507143602 | 77 | 326 | 7.8 | 20.9 | 0.00 | 0.00 | 0.00 | 67 | 1010.4 |
| 20260507143043 | 77 | 34 | 10.4 | 20.9 | 0.00 | 0.00 | 0.00 | 67 | 1010.6 |
| 20260507142546 | 76 | 328 | 12.2 | 22.6 | 0.00 | 0.00 | 0.00 | 69 | 1010.6 |
| 20260507142049 | 76 | 352 | 11.3 | 22.6 | 0.00 | 0.00 | 0.00 | 69 | 1010.7 |
| 20260507141038 | 75 | 8 | 11.3 | 22.6 | 0.00 | 0.00 | 0.00 | 69 | 1011.1 |
| 20260507140539 | 75 | 321 | 10.4 | 21.7 | 0.00 | 0.00 | 0.00 | 71 | 1011.3 |
| 20260507140039 | 74 | 359 | 12.2 | 19.1 | 0.00 | 0.00 | 0.00 | 71 | 1011.3 |
| 20260507135542 | 74 | 6 | 10.4 | 26.1 | 0.00 | 0.00 | 0.00 | 73 | 1011.4 |
| 20260507135044 | 73 | 8 | 13.0 | 26.1 | 0.00 | 0.00 | 0.00 | 73 | 1011.4 |
| 20260507134544 | 73 | 344 | 10.4 | 22.6 | 0.00 | 0.00 | 0.00 | 74 | 1011.5 |
| 20260507134106 | 73 | 348 | 10.4 | 17.4 | 0.00 | 0.00 | 0.00 | 74 | 1011.6 |
| 20260507133604 | 73 | 17 | 11.3 | 21.7 | 0.00 | 0.00 | 0.00 | 74 | 1011.7 |
| 20260507133104 | 73 | 30 | 10.4 | 20.0 | 0.00 | 0.00 | 0.00 | 73 | 1011.8 |
| 20260507132604 | 73 | 13 | 12.2 | 20.0 | 0.00 | 0.00 | 0.00 | 73 | 1011.9 |
| 20260507132044 | 73 | 11 | 14.8 | 20.9 | 0.00 | 0.00 | 0.00 | 73 | 1012.0 |
| 20260507131530 | 73 | 11 | 11.3 | 20.9 | 0.00 | 0.00 | 0.00 | 73 | 1012.1 |
| 20260507131031 | 73 | 9 | 10.4 | 18.2 | 0.00 | 0.00 | 0.00 | 74 | 1012.4 |
| 20260507130533 | 72 | 331 | 10.4 | 0.0 | 0.00 | 0.00 | 0.00 | 74 | 1012.2 |
| 20260507130034 | 72 | 25 | 8.7 | 17.4 | 0.00 | 0.00 | 0.00 | 75 | 1012.4 |
| 20260507125534 | 72 | 359 | 11.3 | 17.4 | 0.00 | 0.00 | 0.00 | 75 | 1012.5 |
| 20260507125035 | 72 | 354 | 10.4 | 21.7 | 0.00 | 0.00 | 0.00 | 75 | 1012.5 |
| 20260507124538 | 72 | 14 | 11.3 | 21.7 | 0.00 | 0.00 | 0.00 | 75 | 1012.6 |
| 20260507124037 | 72 | 11 | 11.3 | 17.4 | 0.00 | 0.00 | 0.00 | 74 | 1012.7 |
| 20260507123540 | 72 | 22 | 9.6 | 19.1 | 0.00 | 0.00 | 0.00 | 74 | 1012.8 |
| 20260507123040 | 72 | 347 | 11.3 | 19.1 | 0.00 | 0.00 | 0.00 | 74 | 1012.9 |
| 20260507122541 | 72 | 354 | 7.8 | 17.4 | 0.00 | 0.00 | 0.00 | 74 | 1012.8 |
| 20260507122039 | 72 | 360 | 10.4 | 18.2 | 0.00 | 0.00 | 0.00 | 74 | 1012.8 |
| 20260507121543 | 72 | 348 | 8.7 | 18.2 | 0.00 | 0.00 | 0.00 | 75 | 1012.8 |
| 20260507121026 | 72 | 360 | 7.8 | 17.4 | 0.00 | 0.00 | 0.00 | 75 | 1012.8 |
| 20260507120530 | 72 | 15 | 11.3 | 18.2 | 0.00 | 0.00 | 0.00 | 76 | 1012.8 |
| 20260507120056 | 72 | 359 | 8.7 | 21.7 | 0.00 | 0.00 | 0.00 | 76 | 1012.6 |
| 20260507115525 | 72 | 1 | 13.0 | 21.7 | 0.00 | 0.00 | 0.00 | 76 | 1012.6 |
| 20260507115030 | 72 | 355 | 11.3 | 19.1 | 0.00 | 0.00 | 0.00 | 76 | 1012.5 |
| 20260507114531 | 72 | 326 | 11.3 | 20.0 | 0.00 | 0.00 | 0.00 | 76 | 1012.5 |
| 20260507114035 | 71 | 8 | 12.2 | 20.0 | 0.00 | 0.00 | 0.00 | 76 | 1012.6 |
| 20260507113539 | 71 | 348 | 10.4 | 20.0 | 0.00 | 0.00 | 0.00 | 77 | 1012.5 |
| 20260507113040 | 71 | 1 | 8.7 | 15.6 | 0.00 | 0.00 | 0.00 | 77 | 1012.6 |
| 20260507112526 | 71 | 1 | 9.6 | 20.9 | 0.00 | 0.00 | 0.00 | 77 | 1012.5 |
| 20260507112051 | 71 | 15 | 9.6 | 20.9 | 0.00 | 0.00 | 0.00 | 77 | 1012.5 |
| 20260507111554 | 71 | 16 | 10.4 | 19.1 | 0.00 | 0.00 | 0.00 | 77 | 1012.4 |
| 20260507111054 | 71 | 11 | 9.6 | 19.1 | 0.00 | 0.00 | 0.00 | 77 | 1012.3 |
| 20260507110537 | 71 | 12 | 8.7 | 17.4 | 0.00 | 0.00 | 0.00 | 77 | 1012.3 |
| 20260507110038 | 71 | 9 | 11.3 | 17.4 | 0.00 | 0.00 | 0.00 | 77 | 1012.3 |
| 20260507105609 | 71 | 8 | 10.4 | 17.4 | 0.00 | 0.00 | 0.00 | 77 | 1012.1 |
| 20260507105043 | 71 | 297 | 9.6 | 17.4 | 0.00 | 0.00 | 0.00 | 77 | 1012.0 |
| 20260507104605 | 71 | 349 | 10.4 | 17.4 | 0.00 | 0.00 | 0.00 | 77 | 1012.0 |
| 20260507104045 | 71 | 5 | 11.3 | 17.4 | 0.00 | 0.00 | 0.00 | 77 | 1012.0 |
| 20260507103535 | 71 | 360 | 8.7 | 18.2 | 0.00 | 0.00 | 0.00 | 78 | 1012.1 |
| 20260507103040 | 71 | 1 | 12.2 | 20.0 | 0.00 | 0.00 | 0.00 | 78 | 1012.0 |
| 20260507102542 | 71 | 22 | 10.4 | 20.0 | 0.00 | 0.00 | 0.00 | 79 | 1012.1 |
| 20260507102104 | 71 | 355 | 10.4 | 18.2 | 0.00 | 0.00 | 0.00 | 79 | 1012.0 |
| 20260507101526 | 71 | 1 | 9.6 | 19.1 | 0.00 | 0.00 | 0.00 | 80 | 1012.0 |
| 20260507101030 | 71 | 25 | 10.4 | 19.1 | 0.00 | 0.00 | 0.00 | 80 | 1011.9 |
| 20260507100551 | 70 | 352 | 9.6 | 18.2 | 0.00 | 0.00 | 0.00 | 80 | 1012.0 |
| 20260507100031 | 71 | 28 | 10.4 | 20.0 | 0.00 | 0.00 | 0.00 | 80 | 1012.1 |
| 20260507095533 | 71 | 347 | 10.4 | 20.0 | 0.00 | 0.00 | 0.00 | 80 | 1012.0 |
| 20260507095032 | 71 | 353 | 10.4 | 18.2 | 0.00 | 0.00 | 0.00 | 80 | 1012.2 |
| 20260507094534 | 71 | 1 | 9.6 | 17.4 | 0.00 | 0.00 | 0.00 | 80 | 1012.1 |
| 20260507094040 | 71 | 359 | 9.6 | 16.5 | 0.00 | 0.00 | 0.00 | 80 | 1012.0 |
| 20260507093540 | 71 | 21 | 11.3 | 18.2 | 0.00 | 0.00 | 0.00 | 80 | 1012.0 |
| 20260507093043 | 71 | 1 | 12.2 | 20.0 | 0.00 | 0.00 | 0.00 | 80 | 1012.0 |
| 20260507092533 | 71 | 360 | 10.4 | 17.4 | 0.00 | 0.00 | 0.00 | 80 | 1012.0 |
| 20260507092039 | 71 | 1 | 12.2 | 20.0 | 0.00 | 0.00 | 0.00 | 80 | 1012.0 |
| 20260507091542 | 71 | 1 | 8.7 | 20.0 | 0.00 | 0.00 | 0.00 | 80 | 1012.1 |
| 20260507091047 | 71 | 357 | 10.4 | 18.2 | 0.00 | 0.00 | 0.00 | 80 | 1012.2 |
| 20260507090528 | 71 | 27 | 9.6 | 18.2 | 0.00 | 0.00 | 0.00 | 80 | 1012.2 |
| 20260507090035 | 71 | 17 | 11.3 | 17.4 | 0.00 | 0.00 | 0.00 | 81 | 1012.3 |
| 20260507085537 | 70 | 8 | 8.7 | 16.5 | 0.00 | 0.00 | 0.00 | 81 | 1012.3 |
| 20260507085040 | 70 | 1 | 10.4 | 16.5 | 0.00 | 0.00 | 0.00 | 81 | 1012.3 |
| 20260507084542 | 70 | 1 | 7.8 | 16.5 | 0.00 | 0.00 | 0.00 | 82 | 1012.3 |
| 20260507084041 | 70 | 6 | 9.6 | 17.4 | 0.00 | 0.00 | 0.00 | 82 | 1012.3 |
| 20260507083604 | 70 | 359 | 8.7 | 17.4 | 0.00 | 0.00 | 0.00 | 82 | 1012.4 |
| 20260507083026 | 70 | 360 | 8.7 | 20.9 | 0.00 | 0.00 | 0.00 | 82 | 1012.5 |
| 20260507082530 | 70 | 330 | 10.4 | 18.2 | 0.00 | 0.00 | 0.00 | 82 | 1012.5 |
| 20260507082054 | 70 | 1 | 10.4 | 16.5 | 0.00 | 0.00 | 0.00 | 82 | 1012.5 |
| 20260507081539 | 70 | 358 | 8.7 | 15.6 | 0.00 | 0.00 | 0.00 | 83 | 1012.5 |
| 20260507081044 | 70 | 359 | 8.7 | 16.5 | 0.00 | 0.00 | 0.00 | 83 | 1012.7 |
| 20260507080528 | 70 | 20 | 9.6 | 16.5 | 0.00 | 0.00 | 0.00 | 83 | 1012.7 |
| 20260507080034 | 70 | 360 | 8.7 | 16.5 | 0.00 | 0.00 | 0.00 | 83 | 1012.7 |
| 20260507075536 | 70 | 12 | 9.6 | 16.5 | 0.00 | 0.00 | 0.00 | 83 | 1012.8 |
| 20260507075042 | 70 | 13 | 9.6 | 16.5 | 0.00 | 0.00 | 0.00 | 84 | 1012.8 |
| 20260507074545 | 70 | 359 | 9.6 | 14.8 | 0.00 | 0.00 | 0.00 | 83 | 1012.9 |
| 20260507074028 | 70 | 360 | 8.7 | 16.5 | 0.00 | 0.00 | 0.00 | 84 | 1013.0 |
| 20260507073531 | 70 | 308 | 8.7 | 16.5 | 0.00 | 0.00 | 0.00 | 83 | 1013.0 |
| 20260507073035 | 70 | 1 | 8.7 | 14.8 | 0.00 | 0.00 | 0.00 | 83 | 1013.0 |
| 20260507072539 | 70 | 352 | 8.7 | 13.9 | 0.00 | 0.00 | 0.00 | 83 | 1013.0 |
| 20260507072101 | 70 | 15 | 9.6 | 14.8 | 0.00 | 0.00 | 0.00 | 83 | 1013.0 |
| 20260507071527 | 70 | 360 | 9.6 | 14.8 | 0.00 | 0.00 | 0.00 | 83 | 1013.3 |
| 20260507071033 | 70 | 12 | 7.8 | 16.5 | 0.00 | 0.00 | 0.00 | 82 | 1013.4 |
| 20260507070537 | 70 | 14 | 9.6 | 16.5 | 0.00 | 0.00 | 0.00 | 82 | 1013.5 |
| 20260507070043 | 70 | 340 | 7.8 | 15.6 | 0.00 | 0.00 | 0.00 | 82 | 1013.5 |
| 20260507065546 | 70 | 1 | 7.8 | 12.2 | 0.00 | 0.00 | 0.00 | 81 | 1013.6 |
| 20260507065030 | 69 | 1 | 7.0 | 10.4 | 0.00 | 0.00 | 0.00 | 81 | 1013.7 |
| 20260507064534 | 69 | 359 | 6.1 | 11.3 | 0.00 | 0.00 | 0.00 | 81 | 1013.8 |
| 20260507064036 | 69 | 1 | 6.1 | 11.3 | 0.00 | 0.00 | 0.00 | 81 | 1013.9 |
| 20260507063543 | 69 | 12 | 6.1 | 8.7 | 0.00 | 0.00 | 0.00 | 81 | 1014.0 |
| 20260507063023 | 69 | 302 | 4.3 | 9.6 | 0.00 | 0.00 | 0.00 | 81 | 1014.1 |
| 20260507062530 | 69 | 347 | 4.3 | 9.6 | 0.00 | 0.00 | 0.00 | 81 | 1014.1 |
| 20260507062034 | 69 | 13 | 4.3 | 8.7 | 0.00 | 0.00 | 0.00 | 81 | 1014.1 |
| 20260507061535 | 69 | 8 | 3.5 | 8.7 | 0.00 | 0.00 | 0.00 | 82 | 1014.3 |
| 20260507061042 | 69 | 20 | 3.5 | 8.7 | 0.00 | 0.00 | 0.00 | 82 | 1014.3 |
| 20260507060526 | 69 | 350 | 4.3 | 8.7 | 0.00 | 0.00 | 0.00 | 82 | 1014.5 |
| 20260507060050 | 69 | 360 | 2.6 | 6.1 | 0.00 | 0.00 | 0.00 | 82 | 1014.7 |
| 20260507055532 | 69 | 345 | 3.5 | 6.1 | 0.00 | 0.00 | 0.00 | 82 | 1014.8 |
| 20260507055057 | 69 | 9 | 2.6 | 5.2 | 0.00 | 0.00 | 0.00 | 83 | 1014.8 |
| 20260507054542 | 69 | 359 | 2.6 | 5.2 | 0.00 | 0.00 | 0.00 | 83 | 1014.8 |
| 20260507054026 | 69 | 328 | 0.9 | 6.1 | 0.00 | 0.00 | 0.00 | 83 | 1014.9 |
| 20260507053531 | 69 | 347 | 2.6 | 6.1 | 0.00 | 0.00 | 0.00 | 83 | 1014.9 |
| 20260507053055 | 69 | 70 | 2.6 | 5.2 | 0.00 | 0.00 | 0.00 | 83 | 1015.1 |
| 20260507052600 | 69 | 17 | 1.7 | 7.0 | 0.00 | 0.00 | 0.00 | 83 | 1015.1 |
| 20260507052102 | 69 | 344 | 1.7 | 7.0 | 0.00 | 0.00 | 0.00 | 83 | 1015.3 |
| 20260507051544 | 69 | 359 | 1.7 | 4.3 | 0.00 | 0.00 | 0.00 | 83 | 1015.4 |
| 20260507051026 | 69 | 330 | 1.7 | 4.3 | 0.00 | 0.00 | 0.00 | 83 | 1015.5 |
| 20260507050529 | 69 | 331 | 1.7 | 5.2 | 0.00 | 0.00 | 0.00 | 83 | 1015.6 |
| 20260507050037 | 69 | 17 | 2.6 | 5.2 | 0.00 | 0.00 | 0.00 | 83 | 1015.6 |
| 20260507045541 | 69 | 44 | 2.6 | 7.0 | 0.00 | 0.00 | 0.00 | 82 | 1015.7 |
| 20260507045031 | 69 | 360 | 2.6 | 5.2 | 0.00 | 0.00 | 0.00 | 82 | 1015.8 |
| 20260507044536 | 69 | 359 | 1.7 | 5.2 | 0.00 | 0.00 | 0.00 | 82 | 1015.9 |
| 20260507044038 | 70 | 45 | 1.7 | 3.5 | 0.00 | 0.00 | 0.00 | 82 | 1016.0 |
| 20260507043540 | 70 | 356 | 0.9 | 3.5 | 0.00 | 0.00 | 0.00 | 82 | 1016.0 |
| 20260507043042 | 70 | 47 | 2.6 | 3.5 | 0.00 | 0.00 | 0.00 | 82 | 1016.1 |
| 20260507042545 | 70 | 14 | 0.9 | 3.5 | 0.00 | 0.00 | 0.00 | 82 | 1016.2 |
| 20260507042028 | 70 | 309 | 1.7 | 5.2 | 0.00 | 0.00 | 0.00 | 81 | 1016.2 |
| 20260507041535 | 70 | 329 | 1.7 | 5.2 | 0.00 | 0.00 | 0.00 | 81 | 1016.3 |
| 20260507041035 | 70 | 11 | 2.6 | 5.2 | 0.00 | 0.00 | 0.00 | 81 | 1016.3 |
| 20260507040540 | 70 | 359 | 2.6 | 7.8 | 0.00 | 0.00 | 0.00 | 81 | 1016.3 |
| 20260507040030 | 70 | 1 | 3.5 | 7.8 | 0.00 | 0.00 | 0.00 | 81 | 1016.3 |
| 20260507035551 | 70 | 1 | 2.6 | 7.0 | 0.00 | 0.00 | 0.00 | 81 | 1016.4 |
| 20260507035034 | 70 | 33 | 2.6 | 7.0 | 0.00 | 0.00 | 0.00 | 81 | 1016.4 |
| 20260507034539 | 70 | 50 | 2.6 | 7.0 | 0.00 | 0.00 | 0.00 | 81 | 1016.5 |
| 20260507034042 | 70 | 26 | 2.6 | 4.3 | 0.00 | 0.00 | 0.00 | 80 | 1016.6 |
| 20260507033546 | 70 | 49 | 2.6 | 5.2 | 0.00 | 0.00 | 0.00 | 80 | 1016.6 |
| 20260507033031 | 70 | 23 | 2.6 | 6.1 | 0.00 | 0.00 | 0.00 | 80 | 1016.8 |
| 20260507032533 | 70 | 351 | 2.6 | 6.1 | 0.00 | 0.00 | 0.00 | 80 | 1016.8 |
| 20260507032039 | 70 | 347 | 1.7 | 4.3 | 0.00 | 0.00 | 0.00 | 80 | 1016.8 |
| 20260507031542 | 70 | 359 | 0.9 | 5.2 | 0.00 | 0.00 | 0.00 | 80 | 1016.9 |
| 20260507031023 | 70 | 23 | 2.6 | 4.3 | 0.00 | 0.00 | 0.00 | 80 | 1017.0 |
| 20260507030529 | 71 | 333 | 2.6 | 4.3 | 0.00 | 0.00 | 0.00 | 80 | 1017.0 |
| 20260507030038 | 71 | 360 | 2.6 | 7.0 | 0.00 | 0.00 | 0.00 | 79 | 1017.0 |
| 20260507025540 | 71 | 20 | 3.5 | 7.0 | 0.00 | 0.00 | 0.00 | 79 | 1017.1 |
| 20260507025042 | 71 | 357 | 2.6 | 4.3 | 0.00 | 0.00 | 0.00 | 78 | 1017.1 |
| 20260507024526 | 71 | 340 | 2.6 | 5.2 | 0.00 | 0.00 | 0.00 | 78 | 1017.1 |
| 20260507024049 | 71 | 339 | 2.6 | 5.2 | 0.00 | 0.00 | 0.00 | 78 | 1017.1 |
| 20260507023531 | 71 | 354 | 2.6 | 4.3 | 0.00 | 0.00 | 0.00 | 77 | 1017.2 |
| 20260507023034 | 72 | 1 | 2.6 | 6.1 | 0.00 | 0.00 | 0.00 | 77 | 1017.2 |
| 20260507022537 | 72 | 1 | 3.5 | 6.1 | 0.00 | 0.00 | 0.00 | 77 | 1017.1 |
| 20260507022040 | 72 | 360 | 1.7 | 5.2 | 0.00 | 0.00 | 0.00 | 76 | 1017.3 |
| 20260507021547 | 72 | 320 | 2.6 | 5.2 | 0.00 | 0.00 | 0.00 | 76 | 1017.3 |
| 20260507021028 | 71 | 358 | 1.7 | 7.0 | 0.00 | 0.00 | 0.00 | 76 | 1017.3 |
| 20260507020531 | 71 | 34 | 1.7 | 7.0 | 0.00 | 0.00 | 0.00 | 76 | 1017.4 |
| 20260507020035 | 72 | 337 | 1.7 | 5.2 | 0.00 | 0.00 | 0.00 | 76 | 1017.5 |
| 20260507015535 | 72 | 12 | 2.6 | 6.1 | 0.00 | 0.00 | 0.00 | 75 | 1017.5 |
| 20260507015038 | 72 | 359 | 1.7 | 6.1 | 0.00 | 0.00 | 0.00 | 75 | 1017.6 |
| 20260507014526 | 72 | 357 | 1.7 | 4.3 | 0.00 | 0.00 | 0.00 | 75 | 1017.6 |
| 20260507014031 | 72 | 4 | 2.6 | 4.3 | 0.00 | 0.00 | 0.00 | 76 | 1017.7 |
| 20260507013535 | 72 | 358 | 2.6 | 4.3 | 0.00 | 0.00 | 0.00 | 75 | 1017.9 |
| 20260507013038 | 72 | 360 | 1.7 | 4.3 | 0.00 | 0.00 | 0.00 | 75 | 1017.9 |
| 20260507012541 | 72 | 1 | 2.6 | 4.3 | 0.00 | 0.00 | 0.00 | 75 | 1017.9 |
| 20260507012044 | 72 | 338 | 2.6 | 3.5 | 0.00 | 0.00 | 0.00 | 75 | 1017.9 |
| 20260507011528 | 72 | 1 | 1.7 | 3.5 | 0.00 | 0.00 | 0.00 | 75 | 1017.7 |
| 20260507010535 | 72 | 359 | 1.7 | 3.5 | 0.00 | 0.00 | 0.00 | 75 | 1017.8 |
| 20260507010040 | 72 | 339 | 1.7 | 4.3 | 0.00 | 0.00 | 0.00 | 75 | 1017.7 |
| 20260507005604 | 72 | 356 | 2.6 | 4.3 | 0.00 | 0.00 | 0.00 | 74 | 1017.8 |
| 20260507005044 | 72 | 359 | 1.7 | 3.5 | 0.00 | 0.00 | 0.00 | 74 | 1017.9 |
| 20260507004526 | 72 | 337 | 0.9 | 2.6 | 0.00 | 0.00 | 0.00 | 74 | 1017.9 |
| 20260507004037 | 73 | 356 | 0.9 | 2.6 | 0.00 | 0.00 | 0.00 | 74 | 1017.9 |
| 20260507003541 | 73 | 324 | 1.7 | 3.5 | 0.00 | 0.00 | 0.00 | 73 | 1017.9 |
| 20260507003043 | 73 | 334 | 1.7 | 3.5 | 0.00 | 0.00 | 0.00 | 73 | 1017.9 |
| 20260507002544 | 73 | 335 | 1.7 | 3.5 | 0.00 | 0.00 | 0.00 | 73 | 1017.9 |
| 20260507002046 | 73 | 359 | 2.6 | 3.5 | 0.00 | 0.00 | 0.00 | 73 | 1018.0 |
| 20260507001529 | 73 | 347 | 0.9 | 2.6 | 0.00 | 0.00 | 0.00 | 73 | 1018.0 |
| 20260507001032 | 73 | 1 | 0.0 | 0.0 | 0.00 | 0.00 | 0.00 | 72 | 1018.0 |
| 20260507000533 | 73 | 1 | 0.0 | 2.6 | 0.00 | 0.00 | 0.00 | 72 | 1018.1 |
| 20260507000039 | 73 | 1 | 0.9 | 2.6 | 0.00 | 0.00 | 0.00 | 72 | 1018.1 |
| 20260506235541 | 73 | 1 | 0.9 | 3.5 | 0.00 | 0.00 | 0.00 | 72 | 1018.1 |
| 20260506235102 | 73 | 329 | 1.7 | 3.5 | 0.00 | 0.00 | 0.00 | 72 | 1018.1 |
| 20260506234544 | 74 | 341 | 0.9 | 3.5 | 0.00 | 0.00 | 0.00 | 72 | 1018.0 |
| 20260506234047 | 74 | 349 | 1.7 | 2.6 | 0.00 | 0.00 | 0.00 | 72 | 1018.1 |
| 20260506233053 | 74 | 359 | 0.9 | 4.3 | 0.00 | 0.00 | 0.00 | 73 | 1018.1 |
| 20260506232537 | 74 | 348 | 2.6 | 4.3 | 0.00 | 0.00 | 0.00 | 73 | 1018.1 |
| 20260506232040 | 74 | 1 | 1.7 | 4.3 | 0.00 | 0.00 | 0.00 | 72 | 1018.1 |
| 20260506231542 | 74 | 5 | 1.7 | 3.5 | 0.00 | 0.00 | 0.00 | 73 | 1018.1 |
| 20260506231043 | 74 | 334 | 2.6 | 3.5 | 0.00 | 0.00 | 0.00 | 73 | 1018.1 |
| 20260506230525 | 74 | 359 | 1.7 | 2.6 | 0.00 | 0.00 | 0.00 | 73 | 1018.1 |
| 20260506230034 | 74 | 319 | 0.9 | 3.5 | 0.00 | 0.00 | 0.00 | 72 | 1018.1 |
| 20260506225535 | 74 | 338 | 1.7 | 4.3 | 0.00 | 0.00 | 0.00 | 72 | 1018.0 |
| 20260506225042 | 74 | 347 | 2.6 | 4.3 | 0.00 | 0.00 | 0.00 | 72 | 1018.0 |
| 20260506224542 | 74 | 359 | 1.7 | 2.6 | 0.00 | 0.00 | 0.00 | 72 | 1018.0 |
| 20260506224104 | 75 | 330 | 1.7 | 2.6 | 0.00 | 0.00 | 0.00 | 72 | 1018.0 |
| 20260506223546 | 75 | 4 | 0.9 | 1.7 | 0.00 | 0.00 | 0.00 | 72 | 1018.0 |
| 20260506223028 | 75 | 1 | 0.9 | 2.6 | 0.00 | 0.00 | 0.00 | 72 | 1018.0 |
| 20260506222551 | 75 | 8 | 0.9 | 3.5 | 0.00 | 0.00 | 0.00 | 72 | 1018.1 |
| 20260506222037 | 75 | 16 | 1.7 | 3.5 | 0.00 | 0.00 | 0.00 | 72 | 1018.0 |
| 20260506221541 | 75 | 359 | 0.9 | 1.7 | 0.00 | 0.00 | 0.00 | 72 | 1018.1 |
| 20260506221025 | 75 | 1 | 0.9 | 1.7 | 0.00 | 0.00 | 0.00 | 71 | 1018.1 |
| 20260506220530 | 75 | 359 | 0.0 | 0.0 | 0.00 | 0.00 | 0.00 | 71 | 1018.1 |
| 20260506220039 | 76 | 22 | 0.0 | 0.0 | 0.00 | 0.00 | 0.00 | 71 | 1018.0 |
| 20260506215543 | 76 | 353 | 0.0 | 0.0 | 0.00 | 0.00 | 0.00 | 70 | 1018.0 |
| 20260506215028 | 76 | 342 | 0.0 | 0.0 | 0.00 | 0.00 | 0.00 | 69 | 1018.1 |
| 20260506214531 | 76 | 359 | 0.0 | 0.0 | 0.00 | 0.00 | 0.00 | 69 | 1018.0 |
| 20260506214036 | 77 | 359 | 0.0 | 2.6 | 0.00 | 0.00 | 0.00 | 67 | 1018.1 |
| 20260506213536 | 77 | 359 | 0.9 | 2.6 | 0.00 | 0.00 | 0.00 | 67 | 1018.1 |
| 20260506213040 | 77 | 12 | 0.0 | 3.5 | 0.00 | 0.00 | 0.00 | 66 | 1018.1 |
| 20260506212542 | 77 | 33 | 0.9 | 3.5 | 0.00 | 0.00 | 0.00 | 66 | 1018.1 |
| 20260506212028 | 78 | 1 | 0.9 | 5.2 | 0.00 | 0.00 | 0.00 | 65 | 1018.0 |
| 20260506211530 | 78 | 360 | 2.6 | 5.2 | 0.00 | 0.00 | 0.00 | 65 | 1017.9 |
| 20260506211033 | 78 | 359 | 2.6 | 5.2 | 0.00 | 0.00 | 0.00 | 65 | 1018.0 |
| 20260506210535 | 78 | 356 | 2.6 | 6.1 | 0.00 | 0.00 | 0.00 | 64 | 1018.0 |
| 20260506210039 | 78 | 18 | 3.5 | 6.1 | 0.00 | 0.00 | 0.00 | 64 | 1018.1 |
| 20260506205542 | 78 | 21 | 3.5 | 4.3 | 0.00 | 0.00 | 0.00 | 65 | 1018.1 |
| 20260506205044 | 78 | 6 | 1.7 | 4.3 | 0.00 | 0.00 | 0.00 | 65 | 1018.0 |
| 20260506204549 | 79 | 340 | 1.7 | 4.3 | 0.00 | 0.00 | 0.00 | 65 | 1018.0 |
| 20260506204031 | 79 | 340 | 1.7 | 3.5 | 0.00 | 0.00 | 0.00 | 65 | 1018.0 |
| 20260506203536 | 79 | 1 | 1.7 | 3.5 | 0.00 | 0.00 | 0.00 | 64 | 1018.0 |
| 20260506203038 | 80 | 359 | 1.7 | 2.6 | 0.00 | 0.00 | 0.00 | 64 | 1018.0 |
| 20260506202541 | 80 | 355 | 1.7 | 4.3 | 0.00 | 0.00 | 0.00 | 63 | 1018.1 |
| 20260506202106 | 80 | 1 | 1.7 | 4.3 | 0.00 | 0.00 | 0.00 | 63 | 1018.2 |
| 20260506201530 | 80 | 354 | 2.6 | 6.1 | 0.00 | 0.00 | 0.00 | 62 | 1018.2 |
| 20260506201033 | 81 | 11 | 3.5 | 7.8 | 0.00 | 0.00 | 0.00 | 61 | 1018.2 |
| 20260506200557 | 81 | 359 | 4.3 | 7.8 | 0.00 | 0.00 | 0.00 | 61 | 1018.2 |
| 20260506200041 | 81 | 335 | 2.6 | 7.8 | 0.00 | 0.00 | 0.00 | 60 | 1018.3 |
| 20260506195545 | 82 | 1 | 2.6 | 7.8 | 0.00 | 0.00 | 0.00 | 60 | 1018.2 |
| 20260506195028 | 82 | 336 | 4.3 | 7.8 | 0.00 | 0.00 | 0.00 | 60 | 1018.3 |
| 20260506194552 | 82 | 1 | 2.6 | 6.1 | 0.00 | 0.00 | 0.00 | 60 | 1018.3 |
| 20260506194032 | 82 | 316 | 4.3 | 8.7 | 0.00 | 0.00 | 0.00 | 60 | 1018.3 |
| 20260506193538 | 82 | 349 | 5.2 | 8.7 | 0.00 | 0.00 | 0.00 | 59 | 1018.1 |
| 20260506193100 | 82 | 310 | 5.2 | 8.7 | 0.00 | 0.00 | 0.00 | 59 | 1018.1 |
| 20260506192601 | 82 | 359 | 6.1 | 8.7 | 0.00 | 0.00 | 0.00 | 60 | 1018.1 |
| 20260506192043 | 82 | 1 | 4.3 | 8.7 | 0.00 | 0.00 | 0.00 | 59 | 1018.2 |
| 20260506191527 | 82 | 11 | 5.2 | 8.7 | 0.00 | 0.00 | 0.00 | 59 | 1018.3 |
| 20260506191029 | 83 | 359 | 5.2 | 8.7 | 0.00 | 0.00 | 0.00 | 59 | 1018.2 |
| 20260506190531 | 83 | 359 | 3.5 | 7.8 | 0.00 | 0.00 | 0.00 | 60 | 1018.2 |
| 20260506190035 | 82 | 327 | 4.3 | 7.8 | 0.00 | 0.00 | 0.00 | 60 | 1018.1 |
| 20260506185536 | 82 | 337 | 2.6 | 7.8 | 0.00 | 0.00 | 0.00 | 61 | 1018.2 |
| 20260506185026 | 81 | 358 | 4.3 | 9.6 | 0.00 | 0.00 | 0.00 | 62 | 1018.3 |
| 20260506184530 | 81 | 27 | 5.2 | 9.6 | 0.00 | 0.00 | 0.00 | 61 | 1018.3 |
| 20260506184054 | 82 | 9 | 4.3 | 7.8 | 0.00 | 0.00 | 0.00 | 61 | 1018.3 |
| 20260506183536 | 82 | 10 | 3.5 | 7.8 | 0.00 | 0.00 | 0.00 | 61 | 1018.4 |
| 20260506183041 | 82 | 31 | 4.3 | 11.3 | 0.00 | 0.00 | 0.00 | 60 | 1018.4 |
| 20260506182542 | 82 | 14 | 5.2 | 11.3 | 0.00 | 0.00 | 0.00 | 59 | 1018.5 |
| 20260506182025 | 82 | 356 | 6.1 | 11.3 | 0.00 | 0.00 | 0.00 | 59 | 1018.4 |
| 20260506181531 | 82 | 39 | 6.1 | 11.3 | 0.00 | 0.00 | 0.00 | 60 | 1018.5 |
| 20260506181034 | 82 | 35 | 7.0 | 11.3 | 0.00 | 0.00 | 0.00 | 60 | 1018.5 |
| 20260506180557 | 83 | 18 | 4.3 | 10.4 | 0.00 | 0.00 | 0.00 | 59 | 1018.5 |
| 20260506180043 | 83 | 346 | 4.3 | 12.2 | 0.00 | 0.00 | 0.00 | 60 | 1018.6 |
| 20260506175546 | 83 | 13 | 7.8 | 12.2 | 0.00 | 0.00 | 0.00 | 60 | 1018.7 |
| 20260506175026 | 83 | 360 | 6.1 | 9.6 | 0.00 | 0.00 | 0.00 | 60 | 1018.7 |
| 20260506174536 | 83 | 360 | 5.2 | 9.6 | 0.00 | 0.00 | 0.00 | 60 | 1018.7 |
| 20260506174040 | 83 | 15 | 6.1 | 10.4 | 0.00 | 0.00 | 0.00 | 61 | 1018.8 |
| 20260506173542 | 82 | 2 | 7.8 | 13.9 | 0.00 | 0.00 | 0.00 | 60 | 1018.9 |
| 20260506173025 | 83 | 21 | 7.0 | 12.2 | 0.00 | 0.00 | 0.00 | 60 | 1018.9 |
| 20260506172549 | 83 | 307 | 4.3 | 9.6 | 0.00 | 0.00 | 0.00 | 62 | 1018.9 |
| 20260506172053 | 83 | 360 | 7.8 | 11.3 | 0.00 | 0.00 | 0.00 | 62 | 1018.9 |
| 20260506171538 | 83 | 41 | 6.1 | 11.3 | 0.00 | 0.00 | 0.00 | 61 | 1019.0 |
| 20260506171043 | 83 | 345 | 3.5 | 9.6 | 0.00 | 0.00 | 0.00 | 62 | 1019.1 |
| 20260506170529 | 82 | 25 | 3.5 | 11.3 | 0.00 | 0.00 | 0.00 | 64 | 1019.1 |
| 20260506170032 | 82 | 316 | 7.0 | 14.8 | 0.00 | 0.00 | 0.00 | 63 | 1019.2 |
| 20260506165534 | 82 | 325 | 9.6 | 14.8 | 0.00 | 0.00 | 0.00 | 63 | 1019.3 |
| 20260506165035 | 82 | 351 | 7.8 | 11.3 | 0.00 | 0.00 | 0.00 | 63 | 1019.4 |
| 20260506164534 | 82 | 1 | 6.1 | 11.3 | 0.00 | 0.00 | 0.00 | 64 | 1019.4 |
| 20260506164035 | 81 | 360 | 5.2 | 14.8 | 0.00 | 0.00 | 0.00 | 64 | 1019.6 |
| 20260506163541 | 81 | 354 | 7.8 | 14.8 | 0.00 | 0.00 | 0.00 | 63 | 1019.7 |
| 20260506163041 | 81 | 358 | 6.1 | 12.2 | 0.00 | 0.00 | 0.00 | 64 | 1019.7 |
| 20260506162541 | 81 | 333 | 5.2 | 13.0 | 0.00 | 0.00 | 0.00 | 64 | 1019.7 |
| 20260506162043 | 81 | 1 | 7.8 | 13.0 | 0.00 | 0.00 | 0.00 | 64 | 1019.9 |
| 20260506161544 | 81 | 353 | 7.8 | 13.0 | 0.00 | 0.00 | 0.00 | 64 | 1020.0 |
| 20260506161044 | 81 | 16 | 6.1 | 13.0 | 0.00 | 0.00 | 0.00 | 66 | 1020.1 |
| 20260506160526 | 80 | 14 | 7.8 | 13.0 | 0.00 | 0.00 | 0.00 | 65 | 1020.2 |
| 20260506160111 | 80 | 44 | 7.0 | 12.2 | 0.00 | 0.00 | 0.00 | 66 | 1020.3 |
| 20260506155548 | 80 | 1 | 4.3 | 9.6 | 0.00 | 0.00 | 0.00 | 67 | 1020.4 |
| 20260506155027 | 80 | 36 | 6.1 | 13.0 | 0.00 | 0.00 | 0.00 | 67 | 1020.5 |
| 20260506154530 | 79 | 357 | 6.1 | 13.0 | 0.00 | 0.00 | 0.00 | 68 | 1020.6 |
| 20260506154031 | 79 | 359 | 7.0 | 13.9 | 0.00 | 0.00 | 0.00 | 68 | 1020.8 |
| 20260506153551 | 79 | 266 | 8.7 | 14.8 | 0.00 | 0.00 | 0.00 | 68 | 1020.8 |
| 20260506153031 | 80 | 17 | 6.1 | 10.4 | 0.00 | 0.00 | 0.00 | 69 | 1020.9 |
| 20260506152533 | 79 | 358 | 7.0 | 10.4 | 0.00 | 0.00 | 0.00 | 69 | 1021.0 |
| 20260506152038 | 80 | 19 | 4.3 | 8.7 | 0.00 | 0.00 | 0.00 | 68 | 1021.0 |
| 20260506151541 | 79 | 345 | 4.3 | 8.7 | 0.00 | 0.00 | 0.00 | 70 | 1021.0 |
| 20260506151101 | 79 | 20 | 3.5 | 11.3 | 0.00 | 0.00 | 0.00 | 71 | 1021.2 |
| 20260506150540 | 78 | 22 | 7.8 | 11.3 | 0.00 | 0.00 | 0.00 | 71 | 1021.2 |
| 20260506150041 | 78 | 359 | 5.2 | 11.3 | 0.00 | 0.00 | 0.00 | 71 | 1021.3 |
| 20260506145603 | 78 | 360 | 7.8 | 11.3 | 0.00 | 0.00 | 0.00 | 71 | 1021.4 |